This demonstration page uses our WeatherBlox Daily Observations layout. Learn more.

Left ArrowRight Arrow

36.17497, -115.13722

Hourly Observations for April 16, 2017

Temp ( °F °C ) Dew Point ( °F °C ) Humidity (%) Winds ( mph kmh ) Pressure ( in mb ) Visibility ( mi km ) Precip ( " mm )
12:53 am 00:53 Clear 62 16.7 26 -3.3 25 25 NNW 5 7 29.94 1014 10 16.0934 N/A
1:53 am 01:53 Clear 61 16.1 27 -2.8 27 27 NNW 3 6 29.94 1014 10 16.0934 N/A
2:53 am 02:53 Clear 60 15.6 26 -3.3 27 27 WNW 3 6 29.94 1014 10 16.0934 N/A
3:53 am 03:53 Clear 60 15.6 26 -3.3 27 27 N N/A 29.94 1014 10 16.0934 N/A
4:53 am 04:53 Clear 59 15 26 -3.3 28 28 WNW 3 6 29.95 1014 10 16.0934 N/A
5:53 am 05:53 Clear 59 15 26 -3.3 28 28 N N/A 29.96 1015 10 16.0934 N/A
6:53 am 06:53 Sunny 58 14.4 26 -3.3 29 29 N N/A 29.98 1015 10 16.0934 N/A
7:53 am 07:53 Sunny 63 17.2 22 -5.6 21 21 N N/A 29.99 1016 10 16.0934 N/A
8:53 am 08:53 Sunny 68 20 22 -5.6 17 17 ESE 9 15 29.98 1015 10 16.0934 N/A
9:53 am 09:53 Sunny 72 22.2 21 -6.1 15 15 SE 12 19 29.99 1016 10 16.0934 N/A
10:53 am 10:53 Sunny 74 23.3 20 -6.7 13 13 SSE 6 9 29.99 1016 10 16.0934 N/A
11:53 am 11:53 Sunny 78 25.6 20 -6.7 11 11 SE 10 17 29.96 1015 10 16.0934 N/A
12:53 pm 12:53 Sunny 81 27.2 20 -6.7 10 10 SE 13 20 29.93 1013 10 16.0934 N/A
1:53 pm 13:53 Sunny 84 28.9 20 -6.7 9 9 SE 13 20 29.9 1013 10 16.0934 N/A
2:53 pm 14:53 Sunny 86 30 14 -10 7 7 SSW 13 20 29.87 1012 10 16.0934 N/A
3:53 pm 15:53 Sunny 88 31.1 2 -16.7 4 4 SW 13 20 29.84 1011 10 16.0934 N/A
4:53 pm 16:53 Sunny 87 30.6 -1 -18.3 3 3 WSW 14 22 29.83 1010 10 16.0934 N/A
5:53 pm 17:53 Sunny 86 30 1 -17.2 4 4 WSW 16 26 29.83 1010 10 16.0934 N/A
6:53 pm 18:53 Sunny 83 28.3 6 -14.4 5 5 WSW 14 22 29.85 1011 10 16.0934 N/A
7:53 pm 19:53 Clear 81 27.2 8 -13.3 6 6 SSW 7 11 29.85 1011 10 16.0934 N/A
8:53 pm 20:53 Clear 79 26.1 12 -11.1 8 8 SSW 8 13 29.86 1011 10 16.0934 N/A
9:53 pm 21:53 Clear 79 26.1 12 -11.1 8 8 WSW 10 17 29.88 1012 10 16.0934 N/A
10:53 pm 22:53 Clear 78 25.6 6 -14.4 6 6 W 8 13 29.88 1012 10 16.0934 N/A
11:53 pm 23:53 Clear 76 24.4 17 -8.3 11 11 WSW 12 19 29.89 1012 10 16.0934 N/A

Powered by AerisWeather